,,Stat6,,Stat2,,Stat8,,Stat9,,Stat10,,Wind1,,Wind1,
time,status,PA1M_AVG,status,PR1M_SUM,status,RH1M_AVG,status,SR1M_AVG,status,TA1M_AVG,status,W1dAve1m,status,W1sAve1m,
2009-07-14, 00:00:00,VALID,917.023,VALID,0,VALID,100,VALID,0.0849042,VALID,19.043,VALID,165,VALID,0,
2009-07-14, 00:01:00,VALID,917.013,VALID,0,VALID,100,VALID,0.0679233,VALID,19.0632,VALID,165,VALID,0,
2009-07-14, 00:02:00,VALID,917.006,VALID,0,VALID,100,VALID,0.0509425,VALID,19.0727,VALID,165,VALID,0,
2009-07-14, 00:03:00,VALID,917.001,VALID,0,VALID,100,VALID,0.0339617,VALID,19.0602,VALID,171,VALID,0,
2009-07-14, 00:04:00,VALID,917.009,VALID,0,VALID,100,VALID,0.0679233,VALID,19.0305,VALID,165,VALID,0,
2009-07-14, 00:05:00,VALID,917.003,VALID,0,VALID,100,VALID,0.0169808,VALID,19.047,VALID,165,VALID,0,
2009-07-14, 00:06:00,VALID,917.009,VALID,0,VALID,100,VALID,0.0339617,VALID,19.0472,VALID,165,VALID,0,
2009-07-14, 00:07:00,VALID,916.984,VALID,0,VALID,100,VALID,0.0509425,VALID,19.044,VALID,165,VALID,0,
2009-07-14, 00:08:00,VALID,916.959,VALID,0,VALID,100,VALID,0.0339617,VALID,19.0273,VALID,165,VALID,0,
2009-07-14, 00:09:00,VALID,916.928,VALID,0,VALID,100,VALID,0.101885,VALID,18.9921,VALID,165,VALID,0,
2009-07-14, 00:10:00,VALID,916.907,VALID,0,VALID,100,VALID,0.101885,VALID,18.9494,VALID,165,VALID,0,
2009-07-14, 00:11:00,VALID,916.898,VALID,0,VALID,100,VALID,0.0849042,VALID,18.9302,VALID,165,VALID,0,
2009-07-14, 00:12:00,VALID,916.88,VALID,0,VALID,100,VALID,-0.0339617,VALID,18.9217,VALID,165,VALID,0,
2009-07-14, 00:13:00,VALID,916.859,VALID,0,VALID,100,VALID,-0.0339617,VALID,18.9444,VALID,165,VALID,0,
2009-07-14, 00:14:00,VALID,916.84,VALID,0,VALID,100,VALID,-0.0169808,VALID,18.9668,VALID,165,VALID,0,
2009-07-14, 00:15:00,VALID,916.83,VALID,0,VALID,100,VALID,0,VALID,19.0125,VALID,165,VALID,0,
2009-07-14, 00:16:00,VALID,916.81,VALID,0,VALID,100,VALID,-0.0339617,VALID,19.0312,VALID,165,VALID,0,
2009-07-14, 00:17:00,VALID,916.805,VALID,0,VALID,100,VALID,0,VALID,19.0514,VALID,163,VALID,0,
2009-07-14, 00:18:00,VALID,916.785,VALID,0,VALID,100,VALID,0,VALID,19.0607,VALID,160,VALID,0,
2009-07-14, 00:19:00,VALID,916.772,VALID,0,VALID,100,VALID,0,VALID,19.0509,VALID,160,VALID,0,
2009-07-14, 00:20:00,VALID,916.755,VALID,0,VALID,100,VALID,0.0169808,VALID,19.0375,VALID,160,VALID,0,
2009-07-14, 00:21:00,VALID,916.738,VALID,0,VALID,100,VALID,0,VALID,19.0604,VALID,160,VALID,0,
2009-07-14, 00:22:00,VALID,916.737,VALID,0,VALID,100,VALID,0,VALID,19.044,VALID,160,VALID,0,
2009-07-14, 00:23:00,VALID,916.725,VALID,0,VALID,100,VALID,-0.0509425,VALID,19.0354,VALID,160,VALID,0,
2009-07-14, 00:24:00,VALID,916.731,VALID,0,VALID,100,VALID,0,VALID,19.006,VALID,160,VALID,0,
2009-07-14, 00:25:00,VALID,916.72,VALID,0,VALID,100,VALID,-0.0339617,VALID,18.98,VALID,160,VALID,0,
2009-07-14, 00:26:00,VALID,916.705,VALID,0,VALID,100,VALID,-0.0169808,VALID,18.9701,VALID,146,VALID,0,
2009-07-14, 00:27:00,VALID,916.697,VALID,0,VALID,100,VALID,-0.0849042,VALID,18.9548,VALID,141,VALID,0,
2009-07-14, 00:28:00,VALID,916.681,VALID,0,VALID,100,VALID,-0.0849042,VALID,18.9221,VALID,115,VALID,0,
2009-07-14, 00:29:00,VALID,916.676,VALID,0,VALID,100,VALID,-0.0679233,VALID,18.8735,VALID,110,VALID,0,
2009-07-14, 00:30:00,VALID,916.664,VALID,0,VALID,100,VALID,-0.0509425,VALID,18.8311,VALID,110,VALID,0,
2009-07-14, 00:31:00,VALID,916.68,VALID,0,VALID,100,VALID,-0.0509425,VALID,18.8181,VALID,119,VALID,0,
2009-07-14, 00:32:00,VALID,916.659,VALID,0,VALID,100,VALID,-0.101885,VALID,18.8088,VALID,119,VALID,0,
2009-07-14, 00:33:00,VALID,916.642,VALID,0,VALID,100,VALID,-0.101885,VALID,18.8118,VALID,102,VALID,0,
2009-07-14, 00:34:00,VALID,916.6,VALID,0,VALID,100,VALID,-0.0679233,VALID,18.7956,VALID,101,VALID,0,
2009-07-14, 00:35:00,VALID,916.589,VALID,0,VALID,100,VALID,-0.0849042,VALID,18.7829,VALID,105,VALID,0,
2009-07-14, 00:36:00,VALID,916.583,VALID,0,VALID,100,VALID,-0.0509425,VALID,18.7792,VALID,105,VALID,0.0359003,
2009-07-14, 00:37:00,VALID,916.58,VALID,0,VALID,100,VALID,-0.0509425,VALID,18.7662,VALID,113,VALID,0.155362,
2009-07-14, 00:38:00,VALID,916.566,VALID,0,VALID,100,VALID,-0.0679233,VALID,18.7632,VALID,121,VALID,0.0474077,
2009-07-14, 00:39:00,VALID,916.538,VALID,0,VALID,100,VALID,-0.0679233,VALID,18.7757,VALID,122,VALID,0,
2009-07-14, 00:40:00,VALID,916.522,VALID,0,VALID,100,VALID,-0.0679233,VALID,18.7595,VALID,124,VALID,0,
2009-07-14, 00:41:00,VALID,916.496,VALID,0,VALID,100,VALID,-0.0509425,VALID,18.7599,VALID,122,VALID,0,
2009-07-14, 00:42:00,VALID,916.487,VALID,0,VALID,100,VALID,-0.0679233,VALID,18.7437,VALID,127,VALID,0,
2009-07-14, 00:43:00,VALID,916.484,VALID,0,VALID,100,VALID,-0.0679233,VALID,18.7467,VALID,132,VALID,0,
2009-07-14, 00:44:00,VALID,916.454,VALID,0,VALID,100,VALID,-0.0849042,VALID,18.747,VALID,124,VALID,0.0191406,
2009-07-14, 00:45:00,VALID,916.44,VALID,0,VALID,100,VALID,-0.0849042,VALID,18.7859,VALID,114,VALID,0.532617,
2009-07-14, 00:46:00,VALID,916.425,VALID,0,VALID,100,VALID,-0.101885,VALID,18.7829,VALID,121,VALID,0.00243056,
2009-07-14, 00:47:00,VALID,916.427,VALID,0,VALID,100,VALID,-0.0509425,VALID,18.7989,VALID,118,VALID,0,
2009-07-14, 00:48:00,VALID,916.427,VALID,0,VALID,100,VALID,-0.0339617,VALID,18.7859,VALID,121,VALID,0,
2009-07-14, 00:49:00,VALID,916.413,VALID,0,VALID,100,VALID,-0.0509425,VALID,18.7891,VALID,127,VALID,0,
2009-07-14, 00:50:00,VALID,916.42,VALID,0,VALID,100,VALID,-0.0169808,VALID,18.7974,VALID,133,VALID,0,
2009-07-14, 00:51:00,VALID,916.404,VALID,0,VALID,100,VALID,-0.0169808,VALID,18.8012,VALID,132,VALID,0,
2009-07-14, 00:52:00,VALID,916.401,VALID,0,VALID,100,VALID,-0.0509425,VALID,18.8213,VALID,149,VALID,0.684451,
2009-07-14, 00:53:00,VALID,916.382,VALID,0,VALID,100,VALID,-0.0339617,VALID,18.8508,VALID,146,VALID,0.563616,
2009-07-14, 00:54:00,VALID,916.355,VALID,0,VALID,100,VALID,-0.0169808,VALID,18.8568,VALID,143,VALID,0.998264,
2009-07-14, 00:55:00,VALID,916.322,VALID,0,VALID,100,VALID,-0.0509425,VALID,18.8565,VALID,139,VALID,0.758333,
2009-07-14, 00:56:00,VALID,916.287,VALID,0,VALID,100,VALID,-0.0169808,VALID,18.8535,VALID,131,VALID,0.161701,
2009-07-14, 00:57:00,VALID,916.273,VALID,0,VALID,100,VALID,-0.0339617,VALID,18.8663,VALID,132,VALID,0,
2009-07-14, 00:58:00,VALID,916.279,VALID,0,VALID,100,VALID,-0.0339617,VALID,18.8825,VALID,124,VALID,0.141578,
2009-07-14, 00:59:00,VALID,916.283,VALID,0,VALID,100,VALID,-0.0169808,VALID,18.8827,VALID,131,VALID,0.169457,
2009-07-14, 01:00:00,VALID,916.3,VALID,0,VALID,100,VALID,-0.0679233,VALID,18.8895,VALID,148,VALID,0.0432413,
2009-07-14, 01:01:00,VALID,916.3,VALID,0,VALID,100,VALID,-0.0509425,VALID,18.8994,VALID,149,VALID,0.00835756,
2009-07-14, 01:02:00,VALID,916.295,VALID,0,VALID,100,VALID,-0.0339617,VALID,18.9122,VALID,133,VALID,0,
2009-07-14, 01:03:00,VALID,916.275,VALID,0,VALID,100,VALID,-0.0509425,VALID,18.902,VALID,122,VALID,0.00111607,
2009-07-14, 01:04:00,VALID,916.248,VALID,0,VALID,100,VALID,-0.0339617,VALID,18.8925,VALID,132,VALID,0,
2009-07-14, 01:05:00,VALID,916.223,VALID,0,VALID,100,VALID,-0.0339617,VALID,18.9022,VALID,141,VALID,0.0429688,
2009-07-14, 01:06:00,VALID,916.195,VALID,0,VALID,100,VALID,-0.0339617,VALID,18.8957,VALID,110,VALID,0,
2009-07-14, 01:07:00,VALID,916.149,VALID,0,VALID,100,VALID,-0.0339617,VALID,18.8765,VALID,123,VALID,0.580221,
2009-07-14, 01:08:00,VALID,916.105,VALID,0,VALID,100,VALID,-0.0169808,VALID,18.876,VALID,122,VALID,0.851563,
2009-07-14, 01:09:00,VALID,916.088,VALID,0,VALID,100,VALID,0,VALID,18.886,VALID,92,VALID,0.216654,
2009-07-14, 01:10:00,VALID,916.074,VALID,0,VALID,100,VALID,-0.0339617,VALID,18.8665,VALID,114,VALID,0.190662,
2009-07-14, 01:11:00,VALID,916.051,VALID,0,VALID,100,VALID,-0.0169808,VALID,18.8698,VALID,132,VALID,0.509673,
2009-07-14, 01:12:00,VALID,916.044,VALID,0,VALID,100,VALID,0,VALID,18.8561,VALID,127,VALID,0.960366,
2009-07-14, 01:13:00,VALID,916.013,VALID,0,VALID,100,VALID,0,VALID,18.8498,VALID,117,VALID,0.141533,
2009-07-14, 01:14:00,VALID,915.982,VALID,0,VALID,100,VALID,-0.0169808,VALID,18.8406,VALID,115,VALID,1.06441,
2009-07-14, 01:15:00,VALID,915.956,VALID,0,VALID,100,VALID,0,VALID,18.8246,VALID,125,VALID,0.716082,
2009-07-14, 01:16:00,VALID,915.932,VALID,0,VALID,100,VALID,0,VALID,18.8046,VALID,124,VALID,1.03681,
2009-07-14, 01:17:00,VALID,915.923,VALID,0,VALID,100,VALID,0,VALID,18.7627,VALID,127,VALID,1.08333,
2009-07-14, 01:18:00,VALID,915.901,VALID,0,VALID,100,VALID,-0.0169808,VALID,18.733,VALID,113,VALID,0.932478,
2009-07-14, 01:19:00,VALID,915.882,VALID,0,VALID,100,VALID,0,VALID,18.7143,VALID,104,VALID,0.343205,
2009-07-14, 01:20:00,VALID,915.866,VALID,0,VALID,100,VALID,-0.0339617,VALID,18.6946,VALID,111,VALID,0.352121,
2009-07-14, 01:21:00,VALID,915.863,VALID,0,VALID,100,VALID,-0.0339617,VALID,18.6849,VALID,126,VALID,0.54887,
2009-07-14, 01:22:00,VALID,915.846,VALID,0,VALID,100,VALID,-0.0509425,VALID,18.6751,VALID,127,VALID,0.943004,
2009-07-14, 01:23:00,VALID,915.831,VALID,0,VALID,100,VALID,-0.0169808,VALID,18.6621,VALID,128,VALID,0.000372024,
2009-07-14, 01:24:00,VALID,915.816,VALID,0,VALID,100,VALID,-0.0339617,VALID,18.6527,VALID,134,VALID,0.0175781,
2009-07-14, 01:25:00,VALID,915.791,VALID,0,VALID,100,VALID,-0.0339617,VALID,18.6584,VALID,135,VALID,0.725632,
2009-07-14, 01:26:00,VALID,915.796,VALID,0,VALID,100,VALID,-0.0169808,VALID,18.6587,VALID,123,VALID,1.06177,
2009-07-14, 01:27:00,VALID,915.787,VALID,0,VALID,100,VALID,-0.0849042,VALID,18.6332,VALID,136,VALID,0.478091,
2009-07-14, 01:28:00,VALID,915.773,VALID,0,VALID,100,VALID,-0.101885,VALID,18.6476,VALID,162,VALID,0.56157,
2009-07-14, 01:29:00,VALID,915.766,VALID,0,VALID,100,VALID,-0.118866,VALID,18.6401,VALID,145,VALID,0.539426,
2009-07-14, 01:30:00,VALID,915.759,VALID,0,VALID,100,VALID,-0.101885,VALID,18.6337,VALID,178,VALID,0.687691,
2009-07-14, 01:31:00,VALID,915.757,VALID,0,VALID,100,VALID,-0.101885,VALID,18.6337,VALID,133,VALID,0.0801711,
2009-07-14, 01:32:00,VALID,915.757,VALID,0,VALID,100,VALID,-0.0849042,VALID,18.6309,VALID,152,VALID,0.343941,
2009-07-14, 01:33:00,VALID,915.734,VALID,0,VALID,100,VALID,-0.0679233,VALID,18.6237,VALID,147,VALID,0.00130208,
2009-07-14, 01:34:00,VALID,915.717,VALID,0,VALID,100,VALID,-0.118866,VALID,18.6237,VALID,142,VALID,0.369665,
2009-07-14, 01:35:00,VALID,915.721,VALID,0,VALID,100,VALID,-0.118866,VALID,18.6207,VALID,131,VALID,0.123438,
2009-07-14, 01:36:00,VALID,915.711,VALID,0,VALID,100,VALID,-0.101885,VALID,18.6244,VALID,129,VALID,0,
2009-07-14, 01:37:00,VALID,915.699,VALID,0,VALID,100,VALID,-0.101885,VALID,18.6274,VALID,129,VALID,0,
2009-07-14, 01:38:00,VALID,915.693,VALID,0,VALID,100,VALID,-0.101885,VALID,18.6207,VALID,136,VALID,0.249805,
2009-07-14, 01:39:00,VALID,915.689,VALID,0,VALID,100,VALID,-0.0679233,VALID,18.5947,VALID,139,VALID,0.357329,
2009-07-14, 01:40:00,VALID,915.681,VALID,0,VALID,100,VALID,-0.118866,VALID,18.5718,VALID,132,VALID,0.43471,
2009-07-14, 01:41:00,VALID,915.677,VALID,0,VALID,100,VALID,-0.101885,VALID,18.5591,VALID,128,VALID,0.552379,
2009-07-14, 01:42:00,VALID,915.65,VALID,0,VALID,100,VALID,-0.0169808,VALID,18.5579,VALID,114,VALID,0.81441,
2009-07-14, 01:43:00,VALID,915.646,VALID,0,VALID,100,VALID,-0.0169808,VALID,18.5391,VALID,77,VALID,0.637649,
2009-07-14, 01:44:00,VALID,915.658,VALID,0,VALID,100,VALID,0,VALID,18.4895,VALID,70,VALID,0.316883,
2009-07-14, 01:45:00,VALID,915.688,VALID,0,VALID,100,VALID,0,VALID,18.4641,VALID,62,VALID,0.506055,
2009-07-14, 01:46:00,VALID,915.717,VALID,0,VALID,100,VALID,-0.0169808,VALID,18.4379,VALID,52,VALID,0.68388,
2009-07-14, 01:47:00,VALID,915.723,VALID,0,VALID,100,VALID,0,VALID,18.4115,VALID,50,VALID,0,
2009-07-14, 01:48:00,VALID,915.715,VALID,0,VALID,100,VALID,0,VALID,18.4152,VALID,50,VALID,0,
2009-07-14, 01:49:00,VALID,915.709,VALID,0,VALID,100,VALID,-0.0169808,VALID,18.3827,VALID,50,VALID,0,
2009-07-14, 01:50:00,VALID,915.726,VALID,0,VALID,100,VALID,0,VALID,18.367,VALID,50,VALID,0,
2009-07-14, 01:51:00,VALID,915.707,VALID,0,VALID,100,VALID,0,VALID,18.3341,VALID,50,VALID,0,
2009-07-14, 01:52:00,VALID,915.704,VALID,0,VALID,100,VALID,0.0169808,VALID,18.3144,VALID,50,VALID,0,
2009-07-14, 01:53:00,VALID,915.697,VALID,0,VALID,100,VALID,0,VALID,18.2882,VALID,50,VALID,0,
2009-07-14, 01:54:00,VALID,915.67,VALID,0,VALID,100,VALID,0,VALID,18.2595,VALID,50,VALID,0,
2009-07-14, 01:55:00,VALID,915.641,VALID,0,VALID,100,VALID,-0.0169808,VALID,18.2335,VALID,50,VALID,0,
2009-07-14, 01:56:00,VALID,915.614,VALID,0,VALID,100,VALID,0,VALID,18.2206,VALID,53,VALID,0,
2009-07-14, 01:57:00,VALID,915.614,VALID,0,VALID,100,VALID,-0.0849042,VALID,18.2115,VALID,56,VALID,0,
2009-07-14, 01:58:00,VALID,915.628,VALID,0,VALID,100,VALID,-0.101885,VALID,18.2604,VALID,66,VALID,0,
2009-07-14, 01:59:00,VALID,915.634,VALID,0,VALID,100,VALID,-0.0849042,VALID,18.2766,VALID,79,VALID,0,
2009-07-14, 02:00:00,VALID,915.613,VALID,0,VALID,100,VALID,-0.0849042,VALID,18.3255,VALID,106,VALID,0,
2009-07-14, 02:01:00,VALID,915.617,VALID,0,VALID,100,VALID,-0.101885,VALID,18.3707,VALID,120,VALID,0,
2009-07-14, 02:02:00,VALID,915.609,VALID,0,VALID,100,VALID,-0.118866,VALID,18.3869,VALID,122,VALID,0,
2009-07-14, 02:03:00,VALID,915.616,VALID,0,VALID,100,VALID,-0.101885,VALID,18.3677,VALID,122,VALID,0,
2009-07-14, 02:04:00,VALID,915.616,VALID,0,VALID,100,VALID,-0.101885,VALID,18.3318,VALID,122,VALID,0,
2009-07-14, 02:05:00,VALID,915.624,VALID,0,VALID,100,VALID,-0.118866,VALID,18.2993,VALID,122,VALID,0,
2009-07-14, 02:06:00,VALID,915.639,VALID,0,VALID,100,VALID,-0.118866,VALID,18.2963,VALID,122,VALID,0,
2009-07-14, 02:07:00,VALID,915.639,VALID,0,VALID,100,VALID,-0.101885,VALID,18.2838,VALID,122,VALID,0,
2009-07-14, 02:08:00,VALID,915.656,VALID,0,VALID,100,VALID,-0.0849042,VALID,18.2442,VALID,122,VALID,0,
2009-07-14, 02:09:00,VALID,915.649,VALID,0,VALID,100,VALID,-0.101885,VALID,18.2312,VALID,122,VALID,0,
2009-07-14, 02:10:00,VALID,915.657,VALID,0,VALID,100,VALID,-0.0679233,VALID,18.1434,VALID,96,VALID,0,
2009-07-14, 02:11:00,VALID,915.657,VALID,0,VALID,100,VALID,-0.0679233,VALID,18.0918,VALID,79,VALID,0,
2009-07-14, 02:12:00,VALID,915.637,VALID,0,VALID,100,VALID,0,VALID,18.1101,VALID,79,VALID,0,
2009-07-14, 02:13:00,VALID,915.638,VALID,0,VALID,100,VALID,0,VALID,18.1228,VALID,70,VALID,0,
2009-07-14, 02:14:00,VALID,915.635,VALID,0,VALID,100,VALID,0.0169808,VALID,18.0776,VALID,68,VALID,0,
2009-07-14, 02:15:00,VALID,915.633,VALID,0,VALID,100,VALID,0.0169808,VALID,18.0318,VALID,68,VALID,0,
2009-07-14, 02:16:00,VALID,915.628,VALID,0,VALID,100,VALID,0,VALID,17.9998,VALID,68,VALID,0,
2009-07-14, 02:17:00,VALID,915.624,VALID,0,VALID,100,VALID,0,VALID,17.9834,VALID,68,VALID,0,
2009-07-14, 02:18:00,VALID,915.617,VALID,0,VALID,100,VALID,0,VALID,17.9929,VALID,68,VALID,0,
2009-07-14, 02:19:00,VALID,915.606,VALID,0,VALID,100,VALID,0,VALID,18.0031,VALID,68,VALID,0,
2009-07-14, 02:20:00,VALID,915.599,VALID,0,VALID,100,VALID,0,VALID,17.9866,VALID,75,VALID,0,
2009-07-14, 02:21:00,VALID,915.59,VALID,0,VALID,100,VALID,-0.0169808,VALID,17.9706,VALID,81,VALID,0,
2009-07-14, 02:22:00,VALID,915.591,VALID,0,VALID,100,VALID,0,VALID,18.0385,VALID,86,VALID,0,
2009-07-14, 02:23:00,VALID,915.595,VALID,0,VALID,100,VALID,0,VALID,18.1064,VALID,97,VALID,0,
2009-07-14, 02:24:00,VALID,915.604,VALID,0,VALID,100,VALID,-0.0169808,VALID,18.1034,VALID,115,VALID,0,
2009-07-14, 02:25:00,VALID,915.606,VALID,0,VALID,100,VALID,0.0169808,VALID,18.0448,VALID,144,VALID,0,
2009-07-14, 02:26:00,VALID,915.633,VALID,0,VALID,100,VALID,0,VALID,18.0126,VALID,159,VALID,0,
2009-07-14, 02:27:00,VALID,915.621,VALID,0,VALID,100,VALID,0,VALID,17.9931,VALID,152,VALID,0.832889,
2009-07-14, 02:28:00,VALID,915.62,VALID,0,VALID,100,VALID,0.0169808,VALID,18.0028,VALID,148,VALID,0.993118,
2009-07-14, 02:29:00,VALID,915.608,VALID,0,VALID,100,VALID,0.0339617,VALID,17.9801,VALID,121,VALID,0.263445,
2009-07-14, 02:30:00,VALID,915.592,VALID,0,VALID,100,VALID,-0.0169808,VALID,17.9602,VALID,110,VALID,0,
2009-07-14, 02:31:00,VALID,915.588,VALID,0,VALID,100,VALID,0.0169808,VALID,17.9218,VALID,95,VALID,0,
2009-07-14, 02:32:00,VALID,915.596,VALID,0,VALID,100,VALID,0,VALID,17.9021,VALID,97,VALID,0,
2009-07-14, 02:33:00,VALID,915.608,VALID,0,VALID,100,VALID,0.0169808,VALID,17.9053,VALID,122,VALID,0,
2009-07-14, 02:34:00,VALID,915.627,VALID,0,VALID,100,VALID,0.0169808,VALID,17.8791,VALID,133,VALID,0,
2009-07-14, 02:35:00,VALID,915.633,VALID,0,VALID,100,VALID,0,VALID,17.8729,VALID,139,VALID,0,
2009-07-14, 02:36:00,VALID,915.63,VALID,0,VALID,100,VALID,0,VALID,17.8694,VALID,123,VALID,0,
2009-07-14, 02:37:00,VALID,915.626,VALID,0,VALID,100,VALID,0,VALID,17.8537,VALID,131,VALID,0,
2009-07-14, 02:38:00,VALID,915.623,VALID,0,VALID,100,VALID,0,VALID,17.8469,VALID,136,VALID,0,
2009-07-14, 02:39:00,VALID,915.595,VALID,0,VALID,100,VALID,0.0169808,VALID,17.8437,VALID,135,VALID,0,
2009-07-14, 02:40:00,VALID,915.579,VALID,0,VALID,100,VALID,0.0169808,VALID,17.8402,VALID,147,VALID,0,
2009-07-14, 02:41:00,VALID,915.572,VALID,0,VALID,100,VALID,0,VALID,17.8467,VALID,153,VALID,0,
2009-07-14, 02:42:00,VALID,915.547,VALID,0,VALID,100,VALID,-0.0169808,VALID,17.8504,VALID,148,VALID,0,
2009-07-14, 02:43:00,VALID,915.553,VALID,0,VALID,100,VALID,0.0169808,VALID,17.8469,VALID,145,VALID,0,
2009-07-14, 02:44:00,VALID,915.554,VALID,0,VALID,100,VALID,0.0339617,VALID,17.85,VALID,148,VALID,0,
2009-07-14, 02:45:00,VALID,915.541,VALID,0,VALID,100,VALID,0,VALID,17.8761,VALID,150,VALID,0,
2009-07-14, 02:46:00,VALID,915.555,VALID,0,VALID,100,VALID,0,VALID,17.8764,VALID,150,VALID,0,
2009-07-14, 02:47:00,VALID,915.532,VALID,0,VALID,100,VALID,0,VALID,17.8634,VALID,150,VALID,0,
2009-07-14, 02:48:00,VALID,915.526,VALID,0,VALID,100,VALID,-0.0169808,VALID,17.8374,VALID,123,VALID,0,
2009-07-14, 02:49:00,VALID,915.54,VALID,0,VALID,100,VALID,0,VALID,17.8277,VALID,122,VALID,0,
2009-07-14, 02:50:00,VALID,915.532,VALID,0,VALID,100,VALID,0,VALID,17.8407,VALID,126,VALID,0,
2009-07-14, 02:51:00,VALID,915.528,VALID,0,VALID,100,VALID,0.0169808,VALID,17.8409,VALID,145,VALID,0,
2009-07-14, 02:52:00,VALID,915.523,VALID,0,VALID,100,VALID,0.0169808,VALID,17.8344,VALID,162,VALID,0,
2009-07-14, 02:53:00,VALID,915.506,VALID,0,VALID,100,VALID,0,VALID,17.8277,VALID,168,VALID,0.585938,
2009-07-14, 02:54:00,VALID,915.49,VALID,0,VALID,100,VALID,0.0339617,VALID,17.827,VALID,168,VALID,0.543064,
2009-07-14, 02:55:00,VALID,915.474,VALID,0,VALID,100,VALID,0.0169808,VALID,17.8405,VALID,168,VALID,0.364583,
2009-07-14, 02:56:00,VALID,915.466,VALID,0,VALID,100,VALID,-0.0169808,VALID,17.8502,VALID,154,VALID,0,
2009-07-14, 02:57:00,VALID,915.458,VALID,0,VALID,100,VALID,0,VALID,17.8567,VALID,148,VALID,0,
2009-07-14, 02:58:00,VALID,915.47,VALID,0,VALID,100,VALID,0,VALID,17.8439,VALID,151,VALID,0,
2009-07-14, 02:59:00,VALID,915.464,VALID,0,VALID,100,VALID,0,VALID,17.8368,VALID,155,VALID,0,
2009-07-14, 03:00:00,VALID,915.446,VALID,0,VALID,100,VALID,0.0169808,VALID,17.8469,VALID,155,VALID,0.0882457,
2009-07-14, 03:01:00,VALID,915.431,VALID,0,VALID,100,VALID,0,VALID,17.8467,VALID,156,VALID,0,
2009-07-14, 03:02:00,VALID,915.436,VALID,0,VALID,100,VALID,0.0169808,VALID,17.8374,VALID,137,VALID,0.150343,
2009-07-14, 03:03:00,VALID,915.437,VALID,0,VALID,100,VALID,-0.0169808,VALID,17.8083,VALID,134,VALID,0,
2009-07-14, 03:04:00,VALID,915.454,VALID,0,VALID,100,VALID,0.0339617,VALID,17.805,VALID,134,VALID,0,
2009-07-14, 03:05:00,VALID,915.445,VALID,0,VALID,100,VALID,-0.0169808,VALID,17.7825,VALID,134,VALID,0,
2009-07-14, 03:06:00,VALID,915.423,VALID,0,VALID,100,VALID,0,VALID,17.789,VALID,135,VALID,0.0442023,
2009-07-14, 03:07:00,VALID,915.402,VALID,0,VALID,100,VALID,0.0169808,VALID,17.7726,VALID,136,VALID,0.00933689,
2009-07-14, 03:08:00,VALID,915.384,VALID,0,VALID,100,VALID,0.0169808,VALID,17.7494,VALID,133,VALID,0,
2009-07-14, 03:09:00,VALID,915.374,VALID,0,VALID,100,VALID,0.0169808,VALID,17.7657,VALID,132,VALID,0,
2009-07-14, 03:10:00,VALID,915.383,VALID,0,VALID,100,VALID,0.0169808,VALID,17.7693,VALID,135,VALID,0,
2009-07-14, 03:11:00,VALID,915.382,VALID,0,VALID,100,VALID,0.0169808,VALID,17.7592,VALID,148,VALID,0,
2009-07-14, 03:12:00,VALID,915.383,VALID,0,VALID,100,VALID,-0.0169808,VALID,17.7497,VALID,158,VALID,0,
2009-07-14, 03:13:00,VALID,915.373,VALID,0,VALID,100,VALID,0,VALID,17.7564,VALID,155,VALID,0,
2009-07-14, 03:14:00,VALID,915.367,VALID,0,VALID,100,VALID,0,VALID,17.7163,VALID,154,VALID,0,
2009-07-14, 03:15:00,VALID,915.36,VALID,0,VALID,100,VALID,0,VALID,17.7432,VALID,150,VALID,0,
2009-07-14, 03:16:00,VALID,915.35,VALID,0,VALID,100,VALID,-0.0169808,VALID,17.7395,VALID,142,VALID,0,
2009-07-14, 03:17:00,VALID,915.36,VALID,0,VALID,100,VALID,0,VALID,17.7362,VALID,138,VALID,0,
2009-07-14, 03:18:00,VALID,915.381,VALID,0,VALID,100,VALID,-0.0169808,VALID,17.7265,VALID,149,VALID,0,
2009-07-14, 03:19:00,VALID,915.392,VALID,0,VALID,100,VALID,0.0339617,VALID,17.7267,VALID,158,VALID,0,
2009-07-14, 03:20:00,VALID,915.37,VALID,0,VALID,100,VALID,0,VALID,17.7497,VALID,161,VALID,0.818892,
2009-07-14, 03:21:00,VALID,915.358,VALID,0,VALID,100,VALID,0,VALID,17.7561,VALID,152,VALID,0.912202,
2009-07-14, 03:22:00,VALID,915.343,VALID,0,VALID,100,VALID,-0.0169808,VALID,17.7434,VALID,144,VALID,0.261433,
2009-07-14, 03:23:00,VALID,915.351,VALID,0,VALID,100,VALID,0,VALID,17.7527,VALID,150,VALID,0.28311,
2009-07-14, 03:24:00,VALID,915.382,VALID,0,VALID,100,VALID,-0.0339617,VALID,17.7659,VALID,153,VALID,0,
2009-07-14, 03:25:00,VALID,915.39,VALID,0,VALID,100,VALID,0,VALID,17.7362,VALID,153,VALID,0,
2009-07-14, 03:26:00,VALID,915.405,VALID,0,VALID,100,VALID,-0.0169808,VALID,17.7265,VALID,144,VALID,0,
2009-07-14, 03:27:00,VALID,915.406,VALID,0,VALID,100,VALID,0.0169808,VALID,17.7135,VALID,152,VALID,0,
2009-07-14, 03:28:00,VALID,915.396,VALID,0,VALID,100,VALID,0,VALID,17.711,VALID,157,VALID,0,
2009-07-14, 03:29:00,VALID,915.39,VALID,0,VALID,100,VALID,-0.0169808,VALID,17.6978,VALID,151,VALID,0,
2009-07-14, 03:30:00,VALID,915.381,VALID,0,VALID,100,VALID,0,VALID,17.6686,VALID,134,VALID,0,
2009-07-14, 03:31:00,VALID,915.36,VALID,0,VALID,100,VALID,-0.0169808,VALID,17.6522,VALID,128,VALID,0,
2009-07-14, 03:32:00,VALID,915.369,VALID,0,VALID,100,VALID,-0.0339617,VALID,17.6586,VALID,135,VALID,0,
2009-07-14, 03:33:00,VALID,915.38,VALID,0,VALID,100,VALID,0.0169808,VALID,17.6586,VALID,143,VALID,0,
2009-07-14, 03:34:00,VALID,915.376,VALID,0,VALID,100,VALID,0.0169808,VALID,17.6558,VALID,144,VALID,0,
2009-07-14, 03:35:00,VALID,915.374,VALID,0,VALID,100,VALID,-0.0169808,VALID,17.6623,VALID,135,VALID,0,
2009-07-14, 03:36:00,VALID,915.383,VALID,0,VALID,100,VALID,0,VALID,17.6267,VALID,115,VALID,0,
2009-07-14, 03:37:00,VALID,915.39,VALID,0,VALID,100,VALID,0,VALID,17.5778,VALID,109,VALID,0,
2009-07-14, 03:38:00,VALID,915.409,VALID,0,VALID,100,VALID,0,VALID,17.5551,VALID,130,VALID,0,
2009-07-14, 03:39:00,VALID,915.403,VALID,0,VALID,100,VALID,-0.0169808,VALID,17.532,VALID,150,VALID,0,
2009-07-14, 03:40:00,VALID,915.387,VALID,0,VALID,100,VALID,0.0169808,VALID,17.5155,VALID,136,VALID,0,
2009-07-14, 03:41:00,VALID,915.366,VALID,0,VALID,100,VALID,0.0339617,VALID,17.5063,VALID,116,VALID,0,
2009-07-14, 03:42:00,VALID,915.352,VALID,0,VALID,100,VALID,0,VALID,17.5,VALID,116,VALID,0.679492,
2009-07-14, 03:43:00,VALID,915.338,VALID,0,VALID,100,VALID,-0.0339617,VALID,17.5162,VALID,121,VALID,0.877663,
2009-07-14, 03:44:00,VALID,915.346,VALID,0,VALID,100,VALID,-0.0169808,VALID,17.4868,VALID,106,VALID,0.558203,
2009-07-14, 03:45:00,VALID,915.351,VALID,0,VALID,100,VALID,0,VALID,17.4805,VALID,125,VALID,0.458097,
2009-07-14, 03:46:00,VALID,915.372,VALID,0,VALID,100,VALID,-0.0679233,VALID,17.4937,VALID,134,VALID,0.208212,
2009-07-14, 03:47:00,VALID,915.392,VALID,0,VALID,100,VALID,-0.0169808,VALID,17.5032,VALID,138,VALID,0.0543155,
2009-07-14, 03:48:00,VALID,915.417,VALID,0,VALID,100,VALID,0,VALID,17.5391,VALID,142,VALID,0.0436046,
2009-07-14, 03:49:00,VALID,915.405,VALID,0,VALID,100,VALID,-0.0509425,VALID,17.5067,VALID,138,VALID,0,
2009-07-14, 03:50:00,VALID,915.402,VALID,0,VALID,100,VALID,0,VALID,17.3965,VALID,127,VALID,0.14043,